ITARNLAS2 Weather Reports


Display with metric or nautical units.
time (UTC)temp
F
wind
direction
speed
MPH
gust
MPH
rain 1hr
in
rain 24hr
in
rain mn
in
humidity
%
barometer
mb
20260904111610 88 131 1.0 9.0 0.00 0.00 0.00 23 1023.6
20260904110107 88 288 1.0 9.0 0.00 0.00 0.00 24 1023.6
20260904104611 88 117 2.0 7.0 0.00 0.00 0.00 24 1023.5
20260904103108 88 156 3.0 8.0 0.00 0.00 0.00 23 1023.4
20260904101611 87 215 1.0 7.0 0.00 0.00 0.00 32 1023.5
20260904100111 86 255 2.0 7.0 0.00 0.00 0.00 30 1023.7
20260904094607 85 284 2.0 5.0 0.00 0.00 0.00 34 1023.8
20260904093107 85 0 2.0 5.0 0.00 0.00 0.00 35 1023.9
20260904091604 84 138 0.0 4.0 0.00 0.00 0.00 41 1023.9
20260904090106 81 0 0.0 0.0 0.00 0.00 0.00 47 1023.8
20260904084608 79 0 0.0 0.0 0.00 0.00 0.00 50 1023.7
20260904083106 76 0 0.0 0.0 0.00 0.00 0.00 56 1023.8
20260904081609 72 0 0.0 0.0 0.00 0.00 0.00 60 1023.8
20260904080110 69 0 0.0 0.0 0.00 0.00 0.00 65 1023.9
20260904074635 64 0 0.0 0.0 0.00 0.00 0.00 71 1023.8
20260904073102 60 0 0.0 0.0 0.00 0.00 0.00 80 1023.8
20260904071606 56 0 0.0 0.0 0.00 0.00 0.00 84 1023.9
20260904070108 54 0 0.0 0.0 0.00 0.00 0.00 86 1023.8
20260904064604 53 0 0.0 0.0 0.00 0.00 0.00 88 1023.8
20260904063111 51 0 0.0 0.0 0.00 0.00 0.00 88 1023.9
20260904061605 50 0 0.0 0.0 0.00 0.00 0.00 90 1023.6
20260904060115 49 0 0.0 0.0 0.00 0.00 0.00 90 1023.7
20260904054609 49 0 0.0 0.0 0.00 0.00 0.00 89 1023.5
20260904053105 49 0 0.0 0.0 0.00 0.00 0.00 89 1023.6
20260904051608 49 0 0.0 0.0 0.00 0.00 0.00 89 1023.6
20260904050106 49 0 0.0 0.0 0.00 0.00 0.00 89 1023.5
20260904044609 49 0 0.0 0.0 0.00 0.00 0.00 89 1023.5
20260904043104 49 0 0.0 0.0 0.00 0.00 0.00 88 1023.5
20260904041602 49 0 0.0 0.0 0.00 0.00 0.00 88 1023.4
20260904040109 49 0 0.0 0.0 0.00 0.00 0.00 88 1023.6
20260904034615 49 0 0.0 0.0 0.00 0.00 0.00 88 1023.7
20260904033104 49 0 0.0 0.0 0.00 0.00 0.00 87 1023.7
20260904031607 49 0 0.0 0.0 0.00 0.00 0.00 86 1023.9
20260904030105 50 0 0.0 0.0 0.00 0.00 0.00 86 1024.0
20260904024607 50 0 0.0 0.0 0.00 0.00 0.00 86 1024.1
20260904023108 50 0 0.0 0.0 0.00 0.00 0.00 85 1024.1
20260904021605 51 0 0.0 0.0 0.00 0.00 0.00 85 1024.3
20260904020107 51 0 0.0 0.0 0.00 0.00 0.00 84 1024.4
20260904014604 51 0 0.0 0.0 0.00 0.00 0.00 84 1024.6
20260904013103 52 0 0.0 0.0 0.00 0.00 0.00 83 1024.6
20260904011609 52 0 0.0 0.0 0.00 0.00 0.00 83 1024.6
20260904010105 52 0 0.0 0.0 0.00 0.00 0.00 82 1024.8
20260904004604 53 0 0.0 0.0 0.00 0.00 0.00 82 1024.9
20260904003106 53 0 0.0 0.0 0.00 0.00 0.00 82 1025.2
20260904001605 53 0 0.0 0.0 0.00 0.00 0.00 81 1025.2
20260904000136 53 0 0.0 0.0 0.00 0.00 0.00 81 1025.5
20260903234607 54 0 0.0 0.0 0.00 0.00 0.00 80 1025.6
20260903233107 54 0 0.0 0.0 0.00 0.00 0.00 79 1025.6
20260903231607 54 0 0.0 0.0 0.00 0.00 0.00 79 1025.8
20260903230114 55 0 0.0 0.0 0.00 0.00 0.00 78 1025.8
20260903224611 55 0 0.0 0.0 0.00 0.00 0.00 77 1025.9
20260903223106 56 0 0.0 0.0 0.00 0.00 0.00 76 1025.8
20260903221604 56 0 0.0 0.0 0.00 0.00 0.00 75 1025.9
20260903220121 57 0 0.0 0.0 0.00 0.00 0.00 74 1025.7
20260903214604 58 0 0.0 0.0 0.00 0.00 0.00 73 1025.7
20260903213107 58 0 0.0 0.0 0.00 0.00 0.00 72 1025.8
20260903211621 59 0 0.0 0.0 0.00 0.00 0.00 71 1025.8
20260903210111 60 0 0.0 0.0 0.00 0.00 0.00 69 1025.9
20260903204636 61 0 0.0 0.0 0.00 0.00 0.00 67 1026.0
20260903203108 62 0 0.0 0.0 0.00 0.00 0.00 65 1025.9
20260903201605 63 0 0.0 0.0 0.00 0.00 0.00 63 1026.0
20260903200105 64 0 0.0 0.0 0.00 0.00 0.00 62 1025.8
20260903194605 65 0 0.0 0.0 0.00 0.00 0.00 59 1025.9
20260903193109 67 0 0.0 0.0 0.00 0.00 0.00 56 1025.7
20260903191606 69 0 0.0 0.0 0.00 0.00 0.00 53 1025.5
20260903190106 70 0 0.0 0.0 0.00 0.00 0.00 49 1025.5
20260903184608 71 0 0.0 0.0 0.00 0.00 0.00 49 1025.2
20260903183106 71 0 0.0 0.0 0.00 0.00 0.00 48 1025.4
20260903181604 72 0 0.0 0.0 0.00 0.00 0.00 46 1025.5
20260903180114 73 0 0.0 0.0 0.00 0.00 0.00 45 1025.5
20260903174613 74 0 0.0 4.0 0.00 0.00 0.00 44 1025.7
20260903173120 74 0 1.0 3.0 0.00 0.00 0.00 41 1025.5
20260903171607 75 0 1.0 4.0 0.00 0.00 0.00 43 1025.7
20260903170113 75 264 1.0 4.0 0.00 0.00 0.00 44 1025.6
20260903164605 76 184 0.0 5.0 0.00 0.00 0.00 42 1025.5
20260903163116 77 248 1.0 6.0 0.00 0.00 0.00 40 1025.6
20260903161605 77 91 1.0 4.0 0.00 0.00 0.00 40 1025.6
20260903160107 79 0 0.0 7.0 0.00 0.00 0.00 36 1025.7
20260903154606 80 172 1.0 6.0 0.00 0.00 0.00 37 1025.6
20260903153105 80 57 1.0 7.0 0.00 0.00 0.00 37 1025.6
20260903151606 81 121 1.0 8.0 0.00 0.00 0.00 35 1025.7
20260903150115 81 159 1.0 6.0 0.00 0.00 0.00 37 1025.9
20260903144601 81 91 2.0 7.0 0.00 0.00 0.00 35 1026.0
20260903143106 81 235 2.0 10.0 0.00 0.00 0.00 33 1026.1
20260903141604 80 103 3.0 8.0 0.00 0.00 0.00 32 1026.1
20260903140108 80 283 1.0 8.0 0.00 0.00 0.00 32 1026.0
20260903134606 81 134 2.0 8.0 0.00 0.00 0.00 34 1026.1
20260903133106 80 200 3.0 9.0 0.00 0.00 0.00 33 1026.2
20260903131609 79 0 1.0 6.0 0.00 0.00 0.00 34 1026.3
20260903130118 79 102 2.0 9.0 0.00 0.00 0.00 35 1026.4
20260903124620 78 123 3.0 9.0 0.00 0.00 0.00 35 1026.5
20260903123109 78 240 3.0 10.0 0.00 0.00 0.00 35 1026.6
20260903121610 78 120 2.0 12.0 0.00 0.00 0.00 37 1026.4
20260903120107 77 275 3.0 9.0 0.00 0.00 0.00 38 1026.5
20260903114609 76 243 3.0 11.0 0.00 0.00 0.00 38 1026.3
20260903113105 77 138 3.0 11.0 0.00 0.00 0.00 38 1026.4